Home > Weather > Clarksville > Past weeks

Flag for USA Past Weather in Clarksville, Tennessee, USA — Yesterday and Last 2 Weeks

Now
75 °F

Sunny.


Feels Like: 77 °F
Forecast: 65 / 86 °F
Wind: 5 mph from Southeast

Location: Outlaw Field

Current Time: May 31, 2016 at 9:22:15 AM

Latest Report: May 31, 2016 at 8:52 AM


Visibility: 10 mi

Pressure: 29.97 "Hg

Humidity: 69%

Dew Point: 64 °F

Location of ClarksvilleLocation

Past Weather in Clarksville — Graph

°F

Clarksville Temperature Yesterday

Maximum temperature yesterday: 86 °F (at 2:52 PM)
Minimum temperature yesterday: 64 °F (at 5:52 AM)
Average temperature yesterday: 76 °F

High & Low Weather Summary for the Past Weeks

 TemperatureHumidityPressure
High86 °F (May 30, 2:52 PM)97% (May 20, 10:55 AM)30.25 "Hg (May 20, 10:55 AM)
Low46 °F (May 19, 5:52 AM)33% (May 22, 3:52 PM)29.91 "Hg (May 27, 4:52 PM)
Average67 °F75%30.04 "Hg
* Reported May 16 7:52 AM — May 31 7:52 AM, Clarksville, Weather by CustomWeather, © 2016

Note: Actual official high and low records may vary slightly from our data, if they occured in-between our weather recording intervals... More about our weather records

Advertising

Clarksville Weather History for the Previous 24 Hours

Scroll right to see more
 ConditionsComfort  
Time TempWeatherWind HumidityBarometerVisibility
7:52 AM
Tue, May 31
72 °FSunny.No wind78%29.96 "Hg10 mi
6:52 AM69 °FSunny.No wind87%29.96 "Hg10 mi
5:52 AM66 °FSunny.No wind90%29.96 "Hg10 mi
4:52 AM65 °FClear.No wind91%29.94 "Hg10 mi
3:52 AM66 °FClear.No wind87%29.94 "Hg10 mi
2:52 AM65 °FClear.No wind91%29.94 "Hg10 mi
1:52 AM66 °FClear.No wind87%29.93 "Hg10 mi
12:52 AM67 °FClear.No wind85%29.95 "Hg10 mi
11:52 PM
Mon, May 30
67 °FClear.No wind85%29.96 "Hg10 mi
10:52 PM70 °FClear.No wind76%29.97 "Hg10 mi
9:52 PM70 °FClear.No wind73%29.97 "Hg10 mi
8:52 PM75 °FClear.No wind58%29.96 "Hg10 mi
7:52 PM76 °FSunny.5 mph60%29.96 "Hg10 mi
6:52 PM81 °FSunny.6 mph51%29.95 "Hg10 mi
5:52 PM85 °FSunny.5 mph42%29.95 "Hg10 mi
4:52 PM86 °FSunny.8 mph37%29.97 "Hg10 mi
3:52 PM85 °FSunny.6 mph40%29.98 "Hg10 mi
2:52 PM86 °FSunny.10 mph42%30.00 "Hg10 mi
1:52 PM84 °FPassing clouds.8 mph41%30.02 "Hg10 mi
12:52 PM85 °FSunny.6 mph42%30.03 "Hg10 mi
11:52 AM85 °FSunny.6 mph40%30.03 "Hg10 mi
10:52 AM84 °FSunny.7 mph43%30.04 "Hg10 mi
9:52 AM81 °FSunny.8 mph56%30.06 "Hg10 mi
Weather by CustomWeather, © 2016

See weather overviewHow to use our weather pages